HST
1 20580U 90037B   23277.65946811  .00008188  00000-0  42570-3 0  9991
2 20580  28.4691 259.0856 0002646 126.8440  38.0454 15.14273024638061
ISS (ZARYA)
1 25544U 98067A   23278.34341472  .00019200  00000-0  34581-3 0  9996
2 25544  51.6405 142.9124 0005554  72.3850  91.6166 15.49804239418872
CXO
1 25867U 99040B   23279.01445405  .00000960  00000-0  00000-0 0  9991
2 25867  37.3871 182.6615 9048725 274.0211   0.2816  0.37811202 13599